This is the latest recevied weather packets stored in our database for station/object XQ6AK-15. If no packets are shown the sender has not sent any weather packets the latest 10 day(s).
| Time | Temp. | Humidity | Pressure | Rain* | Wind** | Luminosity | Snow |
|---|---|---|---|---|---|---|---|
| 1788000091 | 7.22° C | 99% | 1007.1 hPa | 0 mm | - | 0 W/m² | - |
| 1787999788 | 7.22° C | 99% | 1007.1 hPa | 0 mm | - | 0 W/m² | - |
| 1787999485 | 7.22° C | 99% | 1006.9 hPa | 0 mm | - | 0 W/m² | - |
| 1787999180 | 7.22° C | 99% | 1007 hPa | 0 mm | - | 0 W/m² | - |
| 1787998874 | 7.22° C | 99% | 1007.1 hPa | 1.78 mm | - | 0 W/m² | - |
| 1787998573 | 7.22° C | 99% | 1007.1 hPa | 1.78 mm | - | 0 W/m² | - |
| 1787998267 | 7.22° C | 99% | 1007.2 hPa | 0 mm | - | 0 W/m² | - |
| 1787997962 | 7.22° C | 99% | 1007.2 hPa | 0 mm | - | 0 W/m² | - |
| 1787997661 | 7.22° C | 99% | 1007.2 hPa | 4.32 mm | - | 0 W/m² | - |
| 1787997359 | 7.22° C | 99% | 1007.4 hPa | 6.1 mm | - | 0 W/m² | - |
| 1787997054 | 7.22° C | 99% | 1007.3 hPa | 1.27 mm | - | 0 W/m² | - |
| 1787996750 | 7.22° C | 99% | 1007.2 hPa | 0 mm | - | 0 W/m² | - |
| 1787996445 | 7.22° C | 99% | 1007.3 hPa | 0 mm | - | 0 W/m² | - |
| 1787996145 | 7.22° C | 99% | 1007.1 hPa | 0 mm | - | 0 W/m² | - |
| 1787995838 | 7.22° C | 99% | 1007.1 hPa | 0 mm | - | 0 W/m² | - |
| 1787995534 | 7.22° C | 99% | 1007.1 hPa | 0 mm | - | 0 W/m² | - |
| 1787995230 | 7.22° C | 99% | 1006.9 hPa | 0 mm | - | 0 W/m² | - |
| 1787994926 | 7.22° C | 99% | 1006.8 hPa | 0 mm | - | 0 W/m² | - |
| 1787994622 | 7.22° C | 99% | 1006.9 hPa | 0 mm | - | 0 W/m² | - |
| 1787994319 | 7.22° C | 99% | 1006.8 hPa | 0 mm | - | 0 W/m² | - |
| 1787994014 | 7.78° C | 99% | 1006.8 hPa | 0 mm | - | 0 W/m² | - |
| 1787993713 | 7.78° C | 99% | 1006.8 hPa | 0 mm | - | 0 W/m² | - |
| 1787993407 | 7.78° C | 99% | 1006.9 hPa | 0 mm | - | 0 W/m² | - |
| 1787993108 | 7.78° C | 99% | 1006.9 hPa | 0 mm | - | 0 W/m² | - |
| 1787992796 | 7.78° C | 99% | 1006.6 hPa | 0 mm | - | 0 W/m² | - |
* Rain latest hour (hover to see other rain measurements)
** Current wind speed in m/s (hover to see current wind gust speed)